Location: Poughquag
(41.6090°N, 73.6820°W)
Time: 20:30:29
(UTC-04:00)

Hubble Space Telescope - Visible Passes

Search period start: 20 May 2024 00:00
Search period end: 30 May 2024 00:00
Orbit: 512 x 515 km, 28.5° (Epoch: 20 May)

Date Brightness Start Highest point End Pass type
(mag) Time Alt. Az. Time Alt. Az. Time Alt. Az.
27 May 2.9 21:50:51 10° SSW 21:51:17 11° S 21:51:17 11° S visible
28 May 2.7 21:31:51 10° SSW 21:33:26 12° S 21:33:45 12° S visible
29 May 2.8 21:12:53 10° SSW 21:14:31 12° S 21:16:04 10° SSE visible
